Showing default

ORBCOMM FM 109, 40086

Orbit data source: Space-Track

ORBCOMM FM 109, 40086 is a payload satellite owned by Orbcomm (US) in LEO that was launched on Mon, 14 Jul 2014 UTC via an FALCON 9 launch vehicle from the Air Force Eastern Test Range (AFETR). Payload-class satellites include a variety of spacecraft equipped with specific instruments for various scientific and technological missions. These include communications satellites like Starlink; space stations such as the ISS; scientific satellites like the Hubble; Earth observation satellites from companies like Planet Labs, Umbra, and HawkEye 360; GPS; miniature CubeSats for education and research; and military/defense satellites.

Loading next visibility...
Identifier
40086, 2014-040A
Orbit
LEO
Last TLE update
13 hours ago
Origin
Manufacturer
SNC Louisville
Mission
Operational Commercial Communications
Bus & Motor
SN-100A, Unknown motor
Mass
172 kg wet, 158 kg dry
Launch date (UTC)
2014-07-14 (11 years ago)
Launch vehicle
FALCON 9
Launch site
Air Force Eastern Test Range (AFETR)
Object type
Payload
Rocket body
Debris
Shape & HBR
Box + 1 Pan + 1 Ant, 13 m
Radar Cross Section
2.222 m², Medium (>0.1 m² and < 1m²)

Expand to show TLE details & history

TLE from 13 hours ago
0 ORBCOMM FM 109
1 40086U 14040A   25183.73883905  .00000281  00000-0  96920-4 0  9990
2 40086  47.0042 302.8451 0000833  39.8336 320.2611 14.58192244583333
Epoch: 2025-07-02T17:43Z
TLE epoch observation values (Epoch: 2025-07-02T17:43:55.693Z)
Latitude
-0.00001°
Longitude
115.84741°
Altitude
698.78 km
Speed
7.508 km/s
True Right ascension
20h 11m 22s
True Declination
0° 00' 00"
Sunlit
Object was in full shadow at epoch
Visualization orbit readout
Latitude
-44.89776°
Longitude
45.79568°
Altitude
713.832 km
Speed
7.499 km/s
Apparent Right ascension
11h 02m 52s
Apparent Declination
-68° 35' 46"
Sunlit
Object is in full shadow
Visualization observer readout
Local Sidereal Time
18:18:35
Azimuth
208.412° SW
Elevation
-43.488°
Doppler factor
1
Orbital elements
Apogee altitude
700.841 km
Perigee altitude
699.661 km
Semi-major axis
7,078.388 km
Eccentricity
0.00008
Inclination
47.0042°
RAAN
302.8451°
Arg. of periapsis
39.8336°
True anomaly
Unknown
Mean anomaly
320.2611°
Eccentric anomaly
Unknown
Mean motion
3.64453 °/min
Orbital period
98.78 mins
BSTAR
0.00009692
Loading maneuver chart data...
Loading SW <> Apogee altitude chart data...
Loading historical data...
Loading historical data...
Loading historical data...
Loading historical data...
Loading historical data...
Loading historical data...
Loading historical data...

ORBCOMM FM 109 Visibility forecast

Observer location: undefined°, undefined°

Span
Click to sort rows by Start time (UTC) header in descending order
Start Az.
Max El. time (UTC)
Max El. Az.
Max El.
End time (UTC)
End Az.
8 mins2025-07-03 10:19:53.618Z203.529° SW2025-07-03 10:23:53.618Z148.604° SSE29.336°2025-07-03 10:27:53.618Z80.195° E
8 mins2025-07-03 12:03:53.618Z257.747° W2025-07-03 12:07:53.618Z0.676° NNE41.629°2025-07-03 12:11:53.618Z57.947° ENE
7 mins2025-07-03 13:48:53.618Z302.333° NW2025-07-03 13:51:53.618Z3.359° NNE30.623°2025-07-03 13:55:53.618Z62.298° ENE
7 mins2025-07-03 15:32:53.618Z310.815° NW2025-07-03 15:35:53.618Z17.339° NNE37.031°2025-07-03 15:39:53.618Z89.198° E
8 mins2025-07-03 17:15:53.618Z288.22° WNW2025-07-03 17:19:53.618Z195.032° SSW39.037°2025-07-03 17:23:53.618Z139.083° SSE
|